User: anonymous   Login
Location: Livonia
(42.3680°N, 83.3530°W)
Time: 20:03:41
(UTC-04:00)
Language:

MOZ.5/SAFIR/RUBIN 5/SL-8 - Orbit

View from above orbital plane
View from above orbital plane
View from above satellite
View from above satellite

Ground track
Ground track

The orbit data is extracted from the following two-line orbital elements,

1 28898U 05043G   15181.47142863  .00000114  00000-0  32908-4 0  9990
2 28898 097.8471 355.3656 0018539 286.7207 073.1960 14.59923631515105
Epoch (UTC): 30 June 2015 11:18:51
Eccentricity: 0.0018539
inclination: 97.8471°
perigee height: 680 km
apogee height: 706 km
right ascension of ascending node: 355.3656°
argument of perigee: 286.7207°
revolutions per day: 14.59923631
mean anomaly at epoch: 73.1960°
orbit number at epoch: 51510

The dashed part of the orbit path shows where the satellite is in the earth's shadow,  

DLR